Regional Weather Roundup
Issued by NWS

Home | Current Version | Previous Version | Graphics & Text | Print | Product List | Glossary On
Versions: 1 2 3 4 5 6 7 8 9 10 11 12 13 14 15 16 17 18 19 20 21 22 23 24 25 26 27 28 29 30 31 32 33 34 35 36 37 38 39 40 41 42 43 44 45 46 47 48 49 50
000
ASUS43 KIND 211509
RWRIN

WEATHER ROUNDUP FOR INDIANA
NATIONAL WEATHER SERVICE INDIANAPOLIS IN
1000 AM EST TUE FEB 21 2017

NOTE: "FAIR" INDICATES FEW OR NO CLOUDS BELOW 12,000 FEET WITH NO
SIGNIFICANT WEATHER AND/OR OBSTRUCTIONS TO VISIBILITY.

* - STATION DOES NOT REPORT WEATHER SUCH AS PRECIPITATION OR FOG.

+ - STATION NOT QUALITY CONTROLLED BY THE NATIONAL WEATHER SERVICE.
    USE DATA WITH CAUTION...ESPECIALLY DEWPOINT AND RELATIVE
    HUMIDITY OBSERVATIONS.

INZ001>003-010>013-019-020-211600-
NORTHWEST INDIANA

CITY           SKY/WX    TMP DP  RH WIND       PRES   REMARKS
GARY /AIRPORT/ CLOUDY    55  54  94 SW5       29.95R FOG
KNOX *+        CLOUDY    52  36  54 S10       29.97R
LA PORTE +     RAIN      52  49  91 SW3       29.97R
MICHIGAN CITY+ RAIN      52  52 100 S3        29.97R
MONTICELLO +   PTSUNNY   53  49  86 CALM      29.96F
RENSSELAER +   RAIN      54  50  87 S3        29.96S
VALPARAISO     LGT RAIN  54  52  93 CALM      29.96S FOG

$$

LMZ046-743>745-211600-
SOUTHERN LAKE MICHIGAN

STATION/POSITION TIME  TEMP    WIND        PRES    WAVE
                       AIR SEA DIR/SP/G            HT
                 (UTC) (F)     (DEG/KT/KT) (MB)    (FT)
BURNS HARBOR     1403   54     180/  6/ 18 1014.2
MICHIGAN CITY    1440   54     140/ 10/ 11   N/A

$$

INZ004-005-014>016-021>024-211600-
NORTH CENTRAL INDIANA

CITY           SKY/WX    TMP DP  RH WIND       PRES   REMARKS
ELKHART        PTSUNNY   52  48  87 S5        29.96F
GOSHEN         CLOUDY    53  46  77 S3        29.97S
LOGANSPORT +   CLOUDY    54  46  76 S5        29.99R
PERU/GRISSOM   CLOUDY    56  48  76 S6        29.98R
ROCHESTER +    LGT RAIN  54  50  87 S6        29.98R
SOUTH BEND     LGT RAIN  52  50  93 S8        29.97S FOG
WARSAW +       LGT RAIN  52  48  87 S3        29.97F

$$

INZ006>009-017-018-025>027-211600-
NORTHEAST INDIANA

CITY           SKY/WX    TMP DP  RH WIND       PRES   REMARKS
ANGOLA *+      PTSUNNY   50  48  93 NW6       29.95F
AUBURN +       CLOUDY    52  41  66 CALM      29.98F
FORT WAYNE     CLOUDY    53  44  71 SW3       29.98S
HUNTINGTON +   CLOUDY    54  44  69 W3        29.98S
KENDALLVILLE + CLOUDY    50  46  84 S6        29.98S

$$

INZ028-029-035-036-043>045-051>053-211600-
WEST CENTRAL INDIANA

CITY           SKY/WX    TMP DP  RH WIND       PRES   REMARKS
GREENCASTLE +  CLOUDY    54  46  76 S3        29.99F
LAFAYETTE      CLOUDY    55  48  77 SE6       29.97S
TERRE HAUTE    CLOUDY    56  46  69 SE3       29.97F

$$

INZ030>032-037>040-046>048-054>057-064-065-211600-
CENTRAL INDIANA

CITY           SKY/WX    TMP DP  RH WIND       PRES   REMARKS
ANDERSON       SUNNY     57  45  62 S6        29.99F
CP ATTERBURY + PTSUNNY   54  45  71 S3        30.01S
COLUMBUS       PTSUNNY   50  48  93 S3        30.01S
FISHERS *+     CLOUDY    55  48  76 S5        30.00
FRANKFORT +    CLOUDY    57  49  73 SW3       30.01R
GREENWOOD *+   CLOUDY    55  46  73 CALM      30.01S
INDIANAPOLIS   CLOUDY    55  45  68 S8        30.00S
-EAGLE CREEK   CLOUDY    56  45  66 CALM      29.98F
KOKOMO +       CLOUDY    54  46  74 S7        30.00R
MARION +       CLOUDY    53  44  71 SW10      30.00R
MT COMFORT *+  CLOUDY    54  45  71 S10       30.00S
SHELBYVILLE    CLOUDY    57  44  62 SW5       30.00F
ZIONSVILLE +   CLOUDY    54  46  73 S7        30.00S

$$

INZ033-034-041-042-049-050-058-059-211600-
EAST CENTRAL INDIANA

CITY           SKY/WX    TMP DP  RH WIND       PRES   REMARKS
MUNCIE         CLOUDY    58  44  60 SW7       29.98F

$$

INZ060-061-067>069-081>083-085>088-211600-
SOUTHWEST INDIANA

CITY           SKY/WX    TMP DP  RH WIND       PRES   REMARKS
EVANSVILLE     CLOUDY    60  47  61 CALM      29.98F
HUNTINGBURG *+ CLOUDY    61  48  63 SE6       29.99F
WASHINGTON +   CLOUDY    57  46  68 CALM      29.98S

$$

INZ062-063-066-070>080-084-089>092-211600-
SOUTH CENTRAL AND SOUTHEAST INDIANA

CITY           SKY/WX    TMP DP  RH WIND       PRES   REMARKS
BEDFORD +      CLOUDY   N/A N/A N/A CALM      29.99S
BLOOMINGTON    CLOUDY    55  45  68 CALM      30.00R
MADISON *+     CLOUDY    57  43  58 SE7       30.04S
NORTH VERNON + CLOUDY    57  43  58 SE3       30.01S

$$




USA.gov is the U.S. government's official web portal to all federal, state and local government web resources and services.